Location: Beacon Field Observatory
(38.7700°N, 77.0829°W)
Time: 17:46:39
(UTC-05:00)

UKube-1 - Pass Details

Date: 15 December 2019
Orbit: 614 x 618 km, 98.5° (Epoch: 21 January)

Event Time Altitude Azimuth Distance (km) Brightness Sun altitude
Rises 19:06:47 0° 349° (NNW) 2,898 ? -26.3°
Reaches altitude 10° 19:10:36 10° 314° (NW) 1,987 ? -27.0°
Maximum altitude 19:11:47 11° 298° (WNW) 1,918 ? -27.2°
Drops below altitude 10° 19:12:58 10° 282° (WNW) 1,984 ? -27.5°
Sets 19:16:47 0° 246° (WSW) 2,884 ? -28.2°
